User: anonymous   Login
Location: Unspecified
(0.0000°N, 0.0000°E)
Time: 00:55:39
(UTC+00:00)
Language:

ESSA 4 - Orbit

View from above orbital plane
View from above orbital plane
View from above satellite
View from above satellite

Ground track
Ground track

The orbit data is extracted from the following two-line orbital elements,

1  2657U 67006A   18265.61315240 -.00000036 +00000-0 +61057-4 0  9996
2  2657 102.0491 304.1823 0073508 072.5983 084.8903 12.69844065394011
Epoch (UTC): 22 September 2018 14:42:56
Eccentricity: 0.0073508
inclination: 102.0491°
perigee height: 1325 km
apogee height: 1439 km
right ascension of ascending node: 304.1823°
argument of perigee: 72.5983°
revolutions per day: 12.69844065
mean anomaly at epoch: 84.8903°
orbit number at epoch: 39401

The dashed part of the orbit path shows where the satellite is in the earth's shadow,  

DLR